Weather observations for the past three days for
Kalispell, Glacier Park International Airport
Imperial (Metric)
Date Time (mdt) Wind (mph) Vis. (mi.) Weather Sky Cond. Temperature (ºF) Relative Humidity Wind Chill (°F) Heat Index (°F) Pressure Precipitation (in)
Air Dwpt 6 hour altimeter (in) sea level (mb) 1 hr 3 hr 6 hr
Max. Min.
04 06:55 N 9 10.00 Fair CLR 48 30 50% 44 29.93 1012.6
04 05:55 N 8 10.00 Fair CLR 48.9 28.9 59 44.1 46% 46 29.91 1012.0
04 04:55 NE 14 10.00 Fair CLR 51.1 28.9 43% 29.9 1011.7
04 03:55 NE 13 10.00 Fair CLR 53.1 30 41% 29.89 1011.1
04 02:55 NE 14 10.00 Fair CLR 55 30 38% 29.86 1010.2
04 01:55 NE 21 G 33 10.00 Fair and Breezy CLR 57.9 30.9 36% 29.84 1009.2
03 23:55 N 7 10.00 Fair CLR 44.1 39.9 73 44.1 85% 41 29.81 1009.1
03 22:55 Calm 10.00 Fair CLR 48 41 77% 29.8 1008.8
03 21:55 NW 3 10.00 Fair CLR 52 42.1 69% 29.8 1008.9
03 20:55 Calm 10.00 Fair CLR 63 39 41% 29.78 1008.0
03 19:55 S 9 10.00 Fair CLR 69.1 39 33% 29.78 1007.9
03 18:55 S 9 10.00 Fair CLR 72 37.9 29% 29.79 1008.8
03 17:55 S 12 10.00 Fair CLR 73 37 73 63 27% 29.81 1009.2
03 16:55 S 13 10.00 Fair CLR 72 37 28% 29.82 1009.7
03 15:55 S 9 10.00 Fair CLR 72 37 28% 29.85 1010.7
03 14:55 S 7 10.00 Fair CLR 70 37 30% 29.89 1011.8
03 13:55 S 6 10.00 Fair CLR 69.1 34 27% 29.91 1012.8
03 12:55 Calm 10.00 Fair CLR 66.9 36 32% 29.94 1013.7
03 11:55 S 5 10.00 Fair CLR 63 39 64 33.1 41% 29.96 1014.4
03 10:55 Calm 10.00 Fair CLR 59 37 44% 29.98 1015.1
03 09:55 Calm 10.00 Fair CLR 54 37.9 55% 29.99 1015.8
03 08:55 Calm 10.00 Fair CLR 51.1 37.9 61% 30.01 1015.9
03 07:55 Calm 10.00 Fair CLR 46 39 77% 30.01 1016.0
03 06:55 Calm 10.00 Fair CLR 33.1 30.9 92% 30 1016.2
03 05:55 Calm 10.00 Fair CLR 34 33.1 46 33.1 97% 30 1016.0
03 04:55 W 5 10.00 Fair CLR 36 34 93% 33 30 1016.0
03 03:55 W 3 10.00 Fair CLR 37.9 34 86% 29.99 1015.4
03 02:55 NW 3 10.00 Fair CLR 39 36 89% 29.99 1015.5
03 01:55 NW 5 10.00 Fair CLR 41 37 86% 38 29.99 1015.2
03 00:55 NW 3 10.00 Fair CLR 43 37.9 82% 29.98 1015.1
02 23:55 Calm 10.00 Fair CLR 46 39 72 42.1 77% 29.97 1014.8
02 22:55 Calm 10.00 Fair CLR 48 39.9 74% 29.97 1014.7
02 21:55 Calm 10.00 Fair CLR 52 41 66% 29.96 1014.6
02 20:55 Calm 10.00 Partly Cloudy SCT120 60.1 37.9 44% 29.95 1014.2
02 19:55 Calm 10.00 A Few Clouds FEW110 66.9 39 36% 29.95 1013.9
02 18:55 SE 3 10.00 Fair CLR 70 35.1 28% 29.96 1013.8
02 17:55 S 5 10.00 A Few Clouds FEW100 69.1 35.1 72 64.9 29% 29.96 1014.2
02 16:55 Vrbl 3 10.00 A Few Clouds FEW100 70 33.1 26% 29.98 1014.7
02 15:55 W 6 10.00 Fair CLR 72 34 25% 29.99 1015.5
02 14:55 Calm 10.00 Fair CLR 69.1 33.1 26% 30.01 1016.5
02 13:55 Vrbl 3 10.00 Fair CLR 69.1 35.1 29% 30.04 1017.1
02 12:55 Calm 10.00 Fair CLR 66 34 30% 30.06 1017.9
02 11:55 Vrbl 6 10.00 Fair CLR 64 35.1 64.9 42.1 34% 30.08 1018.5
02 10:55 Vrbl 3 10.00 Fair CLR 61 36 39% 30.09 1018.7
02 09:55 Calm 10.00 Fair CLR 55 39 55% 30.1 1019.3
02 08:55 E 5 10.00 Fair CLR 48 37.9 68% 47 30.1 1019.2
02 07:55 Calm 10.00 Partly Cloudy SCT090 45 37 74% 30.08 1018.6
02 06:55 N 7 10.00 A Few Clouds FEW090 46 34 63% 43 30.07 1017.9
02 05:55 N 8 10.00 Fair CLR 45 35.1 46 36 68% 41 30.07 1017.7
02 04:55 NW 7 10.00 Fair CLR 43 33.1 68% 39 30.07 1017.9
02 03:55 NW 5 10.00 Fair CLR 37.9 34 86% 35 30.05 1017.7
02 02:55 NW 3 10.00 Fair CLR 37 34 89% 30.05 1017.5
02 01:55 SE 3 10.00 Fair CLR 39.9 35.1 83% 30.05 1017.5
02 00:55 Calm 10.00 Fair CLR 42.1 37 82% 30.04 1017.4
01 23:55 Calm 10.00 Fair CLR 45 37.9 71.1 44.1 77% 30.03 1017.0
01 22:55 Calm 10.00 Fair CLR 53.1 37 55% 30.02 1016.4
01 21:55 NW 5 9.00 Fair CLR 52 37 57% 30 1016.2
01 20:55 Calm 10.00 Fair CLR 60.1 33.1 36% 29.98 1015.2
01 19:55 S 9 10.00 Fair CLR 66 34 30% 29.97 1015.0
01 18:55 S 15 G 23 10.00 Fair CLR 70 32 25% 29.98 1015.7
01 17:55 S 14 10.00 Fair CLR 71.1 34 71.1 60.1 26% 29.99 1015.7
01 16:55 S 18 10.00 Fair CLR 70 32 25% 30 1016.3
01 15:55 S 17 10.00 Fair CLR 70 30 23% 30.02 1016.9
01 14:55 S 17 10.00 Fair CLR 70 30.9 23% 30.04 1017.6
01 13:55 S 15 G 26 10.00 Fair CLR 66.9 32 27% 30.06 1018.3
01 12:55 S 12 10.00 Fair CLR 64 34 33% 30.08 1019.1
01 11:55 Calm 10.00 Fair CLR 60.1 35.1 60.1 30 39% 30.11 1020.0
01 10:55 SE 6 10.00 Fair CLR 55 34 45% 30.13 1021.0
01 09:55 Calm 10.00 Fair CLR 53.1 37 55% 30.14 1021.1
01 08:55 NE 5 10.00 Fair CLR 46.9 36 66% 45 30.15 1021.3
01 07:55 Calm 10.00 Fair CLR 41 35.1 79% 30.15 1021.2
Date Time (mdt) Wind (mph) Vis. (mi.) Weather Sky Cond. Air Dwpt Max. Min. Relative Humidity Wind Chill (°F) Heat Index (°F) altimeter (in) sea level (mb) 1 hr 3 hr 6 hr
6 hour
Temperature (ºF) Pressure Precipitation (in)